Regional Weather Roundup
Issued by NWS San Diego, CA

Home | Current Version | Previous Version | Text Only | Print | Product List | Glossary On
Versions: 1 2 3 4 5 6 7 8 9 10 11 12 13 14 15 16 17 18 19 20 21 22 23 24 25 26 27 28 29 30 31 32 33 34 35 36 37 38 39 40 41 42 43 44 45 46 47 48 49 50
000
ASUS46 KSGX 020911
RWRSGX

SAN DIEGO HOURLY WEATHER ROUNDUP
NATIONAL WEATHER SERVICE SAN DIEGO CA
200 AM PDT TUE JUN 02 2015

NOTE: "FAIR" INDICATES FEW OR NO CLOUDS BELOW 12,000 FEET WITH NO
SIGNIFICANT WEATHER AND/OR OBSTRUCTIONS TO VISIBILITY.

CAZ042-043-060-061-PZZ750-775-021000-

GREATER SAN DIEGO AREA

CITY           SKY/WX    TMP DP  RH WIND       PRES   REMARKS
LINDBERGH FLD  MOCLDY    63  55  77 CALM      30.02F
POINT LOMA       N/A     60  57  89 NW7         N/A
NATIONAL CITY    N/A     61  57  86 CALM      30.01F
CHULA VISTA      N/A     58  55  90 CALM      29.94F
IMPERIAL BEACH CLEAR     55  53  93 E3        30.01F
BROWN FIELD    CLEAR     57  54  89 CALM      30.00F
MIRAMAR MCAS   PTCLDY    59  51  75 CALM      30.00F
MONTGOMERY FLD CLEAR     60  55  83 CALM      30.01F

$$

NORTH SAN DIEGO COUNTY

CITY           SKY/WX    TMP DP  RH WIND       PRES   REMARKS
CAMP PENDLETON PTCLDY    54  50  86 CALM      30.00F
OCEANSIDE AP   CLOUDY    59  55  87 CALM      29.99F
OCEANSIDE HBR    N/A     61  58  88 CALM      30.02F
VISTA            N/A     60  54  82 CALM      29.98F
CARLSBAD       CLOUDY    62  57  83 W3        29.99F
DEL MAR          N/A     60  58  92 CALM      30.02F
LA JOLLA SCRIP   N/A    N/A N/A N/A N1        29.98F
FALLBROOK        N/A     58  58 100 CALM      30.00F
ESCONDIDO        N/A     59  55  87 CALM      30.01F
SAN MARCOS       N/A     58  54  87 CALM      29.98F
POWAY            N/A     55  51  86 CALM      30.01F

$$

EAST SAN DIEGO COUNTY

CITY           SKY/WX    TMP DP  RH WIND       PRES   REMARKS
RAMONA         CLEAR     49  46  90 CALM      30.01F
SANTEE LAKES     N/A     55  52  90 CALM      30.00F
LA MESA          N/A     58  55  88 CALM      29.95S
JAMUL            N/A     54  51  90 CALM      29.98F
DESCANSO N       N/A     49  30  47 E3        29.88F
MT. LAGUNA OBS   N/A     55  13  19 W14       29.71S
CAMPO            N/A     45  38  76 NE7       30.01F

$$

ORANGE COUNTY AND THE LOS ANGELES BASIN

CITY           SKY/WX    TMP DP  RH WIND       PRES   REMARKS
JOHN WAYNE AP  CLEAR     61  57  87 S3        29.99F
SANTA ANA        N/A     61  55  79 CALM      29.94F
HUNTINGTON BCH   N/A     58  56  93 CALM      30.00F
LOS ALAMITOS   FAIR      59  56  92 CALM      29.99S
FULLERTON      CLEAR     63  55  75 CALM      29.98F
LONG BEACH     CLEAR     62  56  80 VRB3      29.98F
L.A. AP        PTCLDY    60  56  86 CALM      29.99S
L.A. DOWNTOWN  CLEAR     62  56  80 CALM      29.98F

$$

THE INLAND EMPIRE

CITY           SKY/WX    TMP DP  RH WIND       PRES   REMARKS
CORONA         CLEAR     51  49  93 CALM      30.00S
CHINO          CLEAR     58  53  84 W5        30.00F
ONTARIO        PTCLDY    59  53  80 W5        29.99F
RIVERSIDE AP   CLEAR     61  54  77 W3        29.99F
RIV CYN CREST    N/A     61  60  97 CALM        N/A
MORENO VALLEY    N/A     58  54  85 CALM      29.95F
MARCH ARB      CLEAR     56  51  82 CALM      30.00S
HORSETHIEF CYN   N/A     57  45  64 S3        29.95F
PERRIS           N/A     60  55  82 CALM        N/A
MENIFEE          N/A     60  55  82 CALM      30.05F
HEMET EAST       N/A     58  37  43 CALM      30.01F
FRENCH VALLEY  FAIR      55  50  82 SE3       30.01F
TEMECULA         N/A     58  54  88 CALM      29.97F

$$

SAN BERNARDINO AND RIVERSIDE COUNTY MOUNTAINS

CITY           SKY/WX    TMP DP  RH WIND       PRES   REMARKS
BIG BEAR AP    CLEAR     48  19  32 W9        30.17S
ANGELUS OAKS     N/A     47  22  37 CALM      29.86S
PINE COVE        N/A     53  27  36 N3        29.91F

$$

SOUTHERN DESERT INCLUDING THE COACHELLA VALLEY

CITY           SKY/WX    TMP DP  RH WIND       PRES   REMARKS
PALM SPRINGS   CLEAR     77  36  22 SE3       29.82S
THOUSAND PALMS   N/A     78  40  26 NW6       29.78F
PALM DESERT      N/A     74  43  32 CALM        N/A
THERMAL        CLEAR     81  36  19 N14G23    29.77S
BLYTHE         CLEAR     75  44  33 S6        29.80R
IMPERIAL AP    CLEAR     75  24  15 W12       29.80F
EL CENTRO NAS  CLEAR     77  19  11 W16       29.83S
YUMA AZ        CLEAR     78  30  17 W7        29.82S

$$

UPPER DESERT

CITY           SKY/WX    TMP DP  RH WIND       PRES   REMARKS
VICTORVILLE AP CLEAR     59  37  44 CALM      29.99F
HESPERIA         N/A     60  43  52 W1        29.99F
APPLE VALLEY     N/A     62  41  45 SW2       30.05F
PALMDALE       CLEAR     65  41  41 SW14      29.99F
LANCASTER      CLEAR     65  41  41 W20       29.98S
EDWARDS AFB    CLEAR     63  41  44 SW14      29.95S
DAGGETT        CLEAR     73  34  23 W16       29.92F
29 PALMS N     CLEAR     71  31  22 W13       29.96F
NEEDLES        PTCLDY    84  28  13 W12       29.79S

$$

REGIONAL REPORTS

CITY           SKY/WX    TMP DP  RH WIND       PRES   REMARKS
SANTA BARBARA  CLEAR     55  52  89 CALM      29.96F
SANDBERG       CLEAR     58  43  57 NW23G35   30.08F
LAS VEGAS NV   PTCLDY    78  34  20 S20G30    29.80S
PHOENIX AZ     MOCLDY    85  33  15 NE3       29.83S
TIJUANA        CLEAR     57  52  82 CALM      30.02F
ENSENADA NW      N/A     60  32  35 CALM      29.97F

$$

OFFSHORE ISLANDS

CITY           SKY/WX    TMP DP  RH WIND       PRES   REMARKS
CATALINA ARPT  FOG       55  55 100 SW8       30.01F VSB<1/4
SAN NICOLAS IS CLEAR    N/A N/A N/A NW21G28   30.00S

$$

MARINE AND OFFSHORE BUOY REPORTS

STATION/POSITION SKY/WX   TEMP    WIND        PRES    SWELL
                          AIR SEA DIR/SP/G            HT/PER/DIR
                          (F)     (DEG/KT/KT) (MB)    (FT/S/D)
TANNER BANKS               59 60  290/ 12/ 14 1016.9F   3/330/12
S CLEMENTE BASIN           62 64  300/ 14/ 16 1016.0F   3/170/12
SAN NICOLAS IS.               60                N/A     3/170/13
SO. S. ROSA ISLA           58 61  310/ 19/ 23 1015.3F   3/12
W. S. BARBARA CH           56 56  320/ 19/ 23 1015.5F   2/120/14
M. S. BARBARA CH           59 59   CALM  /  2 1015.6F
S. MONICA BASIN            62 64  310/  4/  6 1015.3F   3/270/ 6
S PEDRO CHANNEL               64                N/A     2/170/12
DANA POINT                    66                N/A     2/180/13
OCEANSIDE OFFSHR              66                N/A     2/190/12
TORREY PINES OTR              65                N/A     2/210/12
LA JOLLA 1                 63 67   40/  3/  4 1016.1F
MISSION BAY BUOY              66                N/A     2/220/17
SAN DIEGO BAY                 67              1016.5F
POINT LOMA SOUTH              66                N/A     3/200/14

$$



USA.gov is the U.S. government's official web portal to all federal, state and local government web resources and services.